Regional Weather Roundup
Issued by NWS Little Rock, AR

Home | Current Version | Previous Version | Text Only | Print | Product List | Glossary Off
Versions: 1 2 3 4 5 6 7 8 9 10 11 12 13 14 15 16 17 18 19 20 21 22 23 24 25 26 27 28 29 30 31 32 33 34 35 36 37 38 39 40 41 42 43 44 45 46 47 48 49 50

261
ASUS44 KLZK 270405
RWRLZK

WEATHER ROUNDUP FOR ARKANSAS
NATIONAL WEATHER SERVICE LITTLE ROCK AR
1100 PM CDT SUN MAR 26 2017

NOTE: "FAIR" INDICATES FEW OR NO CLOUDS BELOW 12,000 FEET WITH NO
SIGNIFICANT WEATHER AND/OR OBSTRUCTIONS TO VISIBILITY.

ARZ001-003-010-029-270500-
NORTHWEST ARKANSAS

CITY           SKY/WX    TMP DP  RH WIND       PRES   REMARKS
FAYETTEVILLE   TSTM      57  57 100 NW8       29.90R FOG
FORT SMITH     TSTM      61  57  87 NW3       29.87R
HARRISON       CLOUDY    62  50  64 SE10      29.87S
BENTONVILLE    CLOUDY    57  55  94 E14       29.85F THUNDER
ROGERS         TSTM      57  56  96 E8        29.89F
SILOAM SPGS    CLOUDY    57  54  88 E16G24    29.80F THUNDER
HIGHFILL       TSTM      58  57  97 E12       29.84F
$$

ARZ004-005-016-270500-
NORTH CENTRAL ARKANSAS

CITY           SKY/WX    TMP DP  RH WIND       PRES   REMARKS
BATESVILLE     CLOUDY    63  52  67 SE8       29.91R
FLIPPIN        CLOUDY    63  46  55 NE5       29.87R
MTN HOME       CLOUDY    62  49  62 SE5       29.88R
$$

ARZ040-041-270500-
WEST CENTRAL ARKANSAS

CITY           SKY/WX    TMP DP  RH WIND       PRES   REMARKS
MENA           CLOUDY    75  57  53 SE8G18    29.83R THUNDER
MOUNT IDA      CLOUDY    73  49  42 S8        29.81F
$$

ARZ009-017-025-026-028-270500-
NORTHEAST ARKANSAS

CITY           SKY/WX    TMP DP  RH WIND       PRES   REMARKS
CORNING        FAIR      59  55  88 SE8       29.93S
JONESBORO      PTCLDY    57  53  86 E3        29.92F
NEWPORT        CLOUDY    60  55  83 SE9       29.91S
WALNUT RIDGE   PTCLDY    61  52  72 SE8       29.91S
BLYTHEVILLE    CLOUDY    60  55  83 SE7       29.93F
$$

ARZ022-023-033-042-044-270500-
CENTRAL ARKANSAS

CITY           SKY/WX    TMP DP  RH WIND       PRES   REMARKS
LITTLE ROCK    CLOUDY    66  56  70 SE8       29.88S
N LITTLE ROCK    N/A     66  56  70 SE8       29.88F
JACKSONVILLE   CLOUDY    67  55  66 E5        29.87S
CONWAY           N/A     66  55  68 SE10      29.85R
SEARCY         MOCLDY    62  55  77 CALM      29.91S
HOT SPRINGS    CLOUDY    71  52  50 SE9       29.85F
RUSSELLVILLE   CLOUDY    66  52  60 E8G17     29.83S
CLINTON        FAIR      55  54  94 CALM      29.89R
$$

ARZ036-270500-
EAST ARKANSAS

CITY           SKY/WX    TMP DP  RH WIND       PRES   REMARKS
WEST MEMPHIS   CLOUDY    62  55  77 SE3       29.91F
$$

ARZ050-053-066-070-073-270500-
SOUTHWEST ARKANSAS

CITY           SKY/WX    TMP DP  RH WIND       PRES   REMARKS
ARKADELPHIA    FAIR      64  60  87 CALM      29.85F
CAMDEN         CLOUDY    68  54  60 SE7       29.86F
TEXARKANA      CLOUDY    72  58  61 S12G24    29.83S
EL DORADO      CLOUDY    71  59  65 S8        29.88R
DE QUEEN       CLOUDY    74  60  61 VRB3      29.80S
$$

ARZ056-057-069-270500-
SOUTHEAST ARKANSAS

CITY           SKY/WX    TMP DP  RH WIND       PRES   REMARKS
PINE BLUFF     CLOUDY    66  58  75 SE8       29.88F
STUTTGART      PTCLDY    64  52  63 SE9       29.90S
MONTICELLO     CLOUDY    69  55  60 CALM      29.90R

$$






USA.gov is the U.S. government's official web portal to all federal, state and local government web resources and services.